| time (UTC) | temp F | wind direction | speed MPH | gust MPH | rain 1hr in | rain 24hr in | rain mn in | humidity % | barometer mb |
| 20260505074541 | 58 | 214 | 1.0 | 3.0 | 0.00 | 0.00 | 0.00 | 80 | 1010.9 |
| 20260505073039 | 58 | 179 | 0.0 | 5.0 | 0.00 | 0.00 | 0.00 | 79 | 1010.8 |
| 20260505071537 | 58 | 178 | 1.0 | 4.0 | 0.00 | 0.00 | 0.00 | 79 | 1010.7 |
| 20260505070042 | 59 | 172 | 1.0 | 4.0 | 0.00 | 0.00 | 0.00 | 77 | 1010.7 |
| 20260505064535 | 59 | 164 | 1.0 | 4.0 | 0.00 | 0.00 | 0.00 | 73 | 1010.7 |
| 20260505063034 | 60 | 161 | 0.0 | 4.0 | 0.00 | 0.00 | 0.00 | 70 | 1010.8 |
| 20260505061531 | 60 | 188 | 0.0 | 3.0 | 0.00 | 0.00 | 0.00 | 69 | 1010.6 |
| 20260505060036 | 60 | 207 | 2.0 | 5.0 | 0.00 | 0.00 | 0.00 | 70 | 1010.7 |
| 20260505054528 | 60 | 185 | 0.0 | 3.0 | 0.00 | 0.00 | 0.00 | 70 | 1010.7 |
| 20260505053042 | 60 | 207 | 1.0 | 3.0 | 0.00 | 0.00 | 0.00 | 70 | 1010.8 |
| 20260505051527 | 60 | 181 | 1.0 | 4.0 | 0.00 | 0.00 | 0.00 | 72 | 1010.8 |
| 20260505041519 | 61 | 168 | 0.0 | 3.0 | 0.00 | 0.00 | 0.00 | 72 | 1010.6 |
| 20260505040016 | 62 | 203 | 0.0 | 2.0 | 0.00 | 0.00 | 0.00 | 70 | 1010.6 |
| 20260505034517 | 62 | 200 | 0.0 | 4.0 | 0.00 | 0.00 | 0.00 | 69 | 1010.6 |
| 20260505033014 | 63 | 143 | 2.0 | 6.0 | 0.00 | 0.00 | 0.00 | 69 | 1010.6 |
| 20260505031515 | 63 | 207 | 2.0 | 8.0 | 0.00 | 0.00 | 0.00 | 67 | 1010.6 |
| 20260505030012 | 63 | 179 | 4.0 | 7.0 | 0.00 | 0.00 | 0.00 | 65 | 1010.6 |
| 20260505024512 | 63 | 186 | 2.0 | 7.0 | 0.00 | 0.00 | 0.00 | 64 | 1010.5 |
| 20260505023014 | 63 | 233 | 3.0 | 8.0 | 0.00 | 0.00 | 0.00 | 62 | 1010.5 |
| 20260505021510 | 64 | 174 | 0.0 | 6.0 | 0.00 | 0.00 | 0.00 | 62 | 1010.6 |
| 20260505020013 | 64 | 176 | 2.0 | 5.0 | 0.00 | 0.00 | 0.00 | 61 | 1010.5 |
| 20260505014510 | 64 | 185 | 2.0 | 6.0 | 0.00 | 0.00 | 0.00 | 61 | 1010.3 |
| 20260505013009 | 64 | 175 | 3.0 | 8.0 | 0.00 | 0.00 | 0.00 | 60 | 1010.2 |
| 20260505011508 | 64 | 184 | 2.0 | 6.0 | 0.00 | 0.00 | 0.00 | 58 | 1010.2 |
| 20260505010014 | 65 | 181 | 1.0 | 5.0 | 0.00 | 0.00 | 0.00 | 56 | 1010.1 |
| 20260505004507 | 66 | 192 | 2.0 | 6.0 | 0.00 | 0.00 | 0.00 | 55 | 1010.0 |
| 20260505003006 | 66 | 232 | 2.0 | 7.0 | 0.00 | 0.00 | 0.00 | 53 | 1010.0 |
| 20260505001509 | 67 | 178 | 4.0 | 9.0 | 0.00 | 0.00 | 0.00 | 52 | 1009.9 |
| 20260505000004 | 67 | 192 | 5.0 | 13.0 | 0.00 | 0.00 | 0.00 | 50 | 1009.9 |
| 20260504234504 | 68 | 188 | 6.0 | 16.0 | 0.00 | 0.00 | 0.00 | 47 | 1009.9 |
| 20260504233003 | 69 | 174 | 6.0 | 16.0 | 0.00 | 0.00 | 0.00 | 46 | 1009.9 |
| 20260504231504 | 70 | 147 | 6.0 | 16.0 | 0.00 | 0.00 | 0.00 | 46 | 1010.0 |
| 20260504230002 | 71 | 226 | 5.0 | 11.0 | 0.00 | 0.00 | 0.00 | 45 | 1010.0 |
| 20260504224505 | 72 | 204 | 4.0 | 9.0 | 0.00 | 0.00 | 0.00 | 43 | 1009.9 |
| 20260504223101 | 72 | 174 | 5.0 | 12.0 | 0.00 | 0.00 | 0.00 | 42 | 1009.9 |
| 20260504221559 | 73 | 188 | 5.0 | 14.0 | 0.00 | 0.00 | 0.00 | 42 | 1009.9 |
| 20260504220100 | 73 | 137 | 6.0 | 16.0 | 0.00 | 0.00 | 0.00 | 40 | 1009.8 |
| 20260504214607 | 73 | 163 | 6.0 | 16.0 | 0.00 | 0.00 | 0.00 | 40 | 1009.9 |
| 20260504213057 | 73 | 176 | 8.0 | 19.0 | 0.00 | 0.00 | 0.00 | 38 | 1009.9 |
| 20260504211555 | 73 | 163 | 4.0 | 14.0 | 0.00 | 0.00 | 0.00 | 40 | 1009.9 |
| 20260504210059 | 73 | 147 | 7.0 | 15.0 | 0.00 | 0.00 | 0.00 | 39 | 1009.9 |
| 20260504204557 | 73 | 193 | 6.0 | 13.0 | 0.00 | 0.00 | 0.00 | 42 | 1010.0 |
| 20260504203056 | 72 | 123 | 4.0 | 15.0 | 0.00 | 0.00 | 0.00 | 42 | 1010.2 |
| 20260504201547 | 72 | 181 | 5.0 | 15.0 | 0.00 | 0.00 | 0.00 | 41 | 1010.3 |
| 20260504200044 | 71 | 221 | 9.0 | 17.0 | 0.00 | 0.00 | 0.00 | 41 | 1010.6 |
| 20260504194547 | 71 | 161 | 4.0 | 14.0 | 0.00 | 0.00 | 0.00 | 43 | 1010.8 |
| 20260504193040 | 72 | 127 | 6.0 | 14.0 | 0.00 | 0.00 | 0.00 | 41 | 1011.1 |
| 20260504191537 | 71 | 173 | 5.0 | 13.0 | 0.00 | 0.00 | 0.00 | 41 | 1011.5 |
| 20260504190037 | 70 | 215 | 4.0 | 12.0 | 0.00 | 0.00 | 0.00 | 43 | 1011.7 |
| 20260504184533 | 71 | 200 | 7.0 | 15.0 | 0.00 | 0.00 | 0.00 | 40 | 1012.0 |
| 20260504183032 | 71 | 182 | 6.0 | 12.0 | 0.00 | 0.00 | 0.00 | 41 | 1012.0 |
| 20260504181531 | 71 | 182 | 7.0 | 11.0 | 0.00 | 0.00 | 0.00 | 41 | 1012.1 |
| 20260504180029 | 70 | 129 | 4.0 | 11.0 | 0.00 | 0.00 | 0.00 | 43 | 1012.4 |
| 20260504174527 | 70 | 193 | 5.0 | 12.0 | 0.00 | 0.00 | 0.00 | 43 | 1012.5 |
| 20260504173025 | 70 | 156 | 5.0 | 12.0 | 0.00 | 0.00 | 0.00 | 42 | 1012.7 |
| 20260504171531 | 69 | 154 | 3.0 | 10.0 | 0.00 | 0.00 | 0.00 | 45 | 1012.7 |
| 20260504081537 | 48 | 267 | 0.0 | 2.0 | 0.00 | 0.00 | 0.00 | 67 | 1015.6 |